| time (UTC) | temp C | wind direction | speed KPH | gust KPH | rain 1hr cm | rain 24hr cm | rain mn cm | humidity % | barometer mb |
| 20260503212001 | 10 | 128 | 0.0 | 0.0 | 0.00 | 0.00 | 0.00 | 81 | 1011.5 |
| 20260503211000 | 10 | 89 | 0.0 | 0.0 | 0.00 | 0.00 | 0.00 | 79 | 1011.5 |
| 20260503210000 | 10 | 101 | 3.2 | 0.0 | 0.00 | 0.00 | 0.00 | 81 | 1011.5 |
| 20260503205000 | 11 | 180 | 3.2 | 0.0 | 0.00 | 0.00 | 0.00 | 75 | 1011.5 |
| 20260503204001 | 11 | 138 | 0.0 | 0.0 | 0.00 | 0.00 | 0.00 | 71 | 1011.5 |
| 20260503203001 | 12 | 52 | 0.0 | 0.0 | 0.00 | 0.00 | 0.00 | 70 | 1011.5 |
| 20260503202000 | 12 | 27 | 0.0 | 0.0 | 0.00 | 0.00 | 0.00 | 67 | 1011.5 |
| 20260503201000 | 12 | 118 | 0.0 | 0.0 | 0.00 | 0.00 | 0.00 | 70 | 1011.1 |
| 20260503200000 | 12 | 80 | 0.0 | 0.0 | 0.00 | 0.00 | 0.00 | 68 | 1011.1 |
| 20260503195001 | 12 | 193 | 6.4 | 0.0 | 0.00 | 0.00 | 0.00 | 69 | 1011.1 |
| 20260503194000 | 12 | 0 | 3.2 | 0.0 | 0.00 | 0.00 | 0.00 | 68 | 1011.1 |
| 20260503193000 | 12 | 335 | 0.0 | 0.0 | 0.00 | 0.00 | 0.00 | 74 | 1011.1 |
| 20260503192000 | 12 | 136 | 0.0 | 0.0 | 0.00 | 0.00 | 0.00 | 94 | 1011.1 |
| 20260503191001 | 13 | 166 | 0.0 | 0.0 | 0.00 | 0.00 | 0.00 | 91 | 1011.1 |
| 20260503190000 | 15 | 138 | 0.0 | 0.0 | 0.00 | 0.00 | 0.00 | 63 | 1011.1 |
| 20260503185000 | 15 | 88 | 0.0 | 0.0 | 0.00 | 0.00 | 0.00 | 53 | 1010.8 |
| 20260503184001 | 16 | 61 | 0.0 | 0.0 | 0.00 | 0.00 | 0.00 | 53 | 1010.8 |
| 20260503183001 | 17 | 74 | 0.0 | 0.0 | 0.00 | 0.00 | 0.00 | 46 | 1010.8 |
| 20260503182000 | 17 | 43 | 0.0 | 0.0 | 0.00 | 0.00 | 0.00 | 41 | 1010.8 |
| 20260503181000 | 18 | 46 | 0.0 | 0.0 | 0.00 | 0.00 | 0.00 | 38 | 1010.8 |
| 20260503180001 | 20 | 46 | 0.0 | 0.0 | 0.00 | 0.00 | 0.00 | 37 | 1010.8 |
| 20260503175000 | 22 | 54 | 0.0 | 0.0 | 0.00 | 0.00 | 0.00 | 33 | 1010.8 |
| 20260503174001 | 22 | 56 | 3.2 | 0.0 | 0.00 | 0.00 | 0.00 | 32 | 1010.8 |
| 20260503173001 | 22 | 71 | 3.2 | 0.0 | 0.00 | 0.00 | 0.00 | 29 | 1010.8 |
| 20260503172001 | 23 | 85 | 3.2 | 0.0 | 0.00 | 0.00 | 0.00 | 28 | 1010.8 |
| 20260503171000 | 26 | 160 | 3.2 | 0.0 | 0.00 | 0.00 | 0.00 | 26 | 1010.8 |
| 20260503151000 | 27 | 203 | 11.3 | 0.0 | 0.00 | 0.00 | 0.00 | 24 | 1011.1 |
| 20260503131000 | 27 | 212 | 14.5 | 0.0 | 0.00 | 0.00 | 0.00 | 25 | 1012.5 |
| 20260503081000 | 22 | 231 | 32.2 | 0.0 | 0.00 | 0.00 | 0.00 | 35 | 1015.2 |
| 20260503072001 | 21 | 228 | 17.7 | 0.0 | 0.00 | 0.00 | 0.00 | 51 | 1015.2 |
| 20260503071000 | 20 | 222 | 32.2 | 0.0 | 0.00 | 0.00 | 0.00 | 61 | 1015.2 |
| 20260503055000 | 13 | 84 | 0.0 | 0.0 | 0.00 | 0.00 | 0.00 | 85 | 1015.2 |
| 20260503054000 | 12 | 137 | 3.2 | 0.0 | 0.00 | 0.00 | 0.00 | 89 | 1015.2 |
| 20260503053000 | 11 | 47 | 0.0 | 0.0 | 0.00 | 0.00 | 0.00 | 97 | 1015.2 |
| 20260503052000 | 10 | 44 | 3.2 | 0.0 | 0.00 | 0.00 | 0.00 | 97 | 1015.2 |
| 20260503051001 | 10 | 59 | 0.0 | 0.0 | 0.00 | 0.00 | 0.00 | 99 | 1015.2 |
| 20260503050000 | 7 | 37 | 6.4 | 0.0 | 0.00 | 0.00 | 0.00 | 99 | 1015.2 |
| 20260503045000 | 7 | 92 | 0.0 | 0.0 | 0.00 | 0.00 | 0.00 | 99 | 1015.2 |
| 20260503044000 | 7 | 87 | 3.2 | 0.0 | 0.00 | 0.00 | 0.00 | 99 | 1015.2 |
| 20260503043000 | 6 | 59 | 0.0 | 0.0 | 0.00 | 0.00 | 0.00 | 99 | 1015.2 |
| 20260503042001 | 3 | 55 | 0.0 | 0.0 | 0.00 | 0.00 | 0.00 | 99 | 1015.2 |
| 20260503041000 | 2 | 167 | 3.2 | 0.0 | 0.00 | 0.00 | 0.00 | 99 | 1015.2 |
| 20260503040000 | 2 | 217 | 3.2 | 0.0 | 0.00 | 0.00 | 0.00 | 99 | 1015.2 |
| 20260503035000 | 2 | 60 | 0.0 | 0.0 | 0.00 | 0.00 | 0.00 | 99 | 1015.2 |
| 20260503034001 | 2 | 60 | 0.0 | 0.0 | 0.00 | 0.00 | 0.00 | 99 | 1015.2 |
| 20260503033000 | 2 | 117 | 0.0 | 0.0 | 0.00 | 0.00 | 0.00 | 99 | 1015.2 |
| 20260503032000 | 2 | 164 | 0.0 | 0.0 | 0.00 | 0.00 | 0.00 | 99 | 1015.2 |
| 20260503031001 | 2 | 95 | 0.0 | 0.0 | 0.00 | 0.00 | 0.00 | 99 | 1015.2 |
| 20260503030000 | 2 | 28 | 0.0 | 0.0 | 0.00 | 0.00 | 0.00 | 99 | 1015.2 |
| 20260503025001 | 2 | 168 | 11.3 | 0.0 | 0.00 | 0.00 | 0.00 | 99 | 1015.2 |
| 20260503024000 | 2 | 194 | 3.2 | 0.0 | 0.00 | 0.00 | 0.00 | 99 | 1015.2 |
| 20260503023000 | 2 | 15 | 0.0 | 0.0 | 0.00 | 0.00 | 0.00 | 99 | 1015.2 |
| 20260503022000 | 2 | 17 | 0.0 | 0.0 | 0.00 | 0.00 | 0.00 | 99 | 1015.2 |
| 20260503021001 | 2 | 5 | 0.0 | 0.0 | 0.00 | 0.00 | 0.00 | 99 | 1015.2 |
| 20260503020000 | 2 | 129 | 3.2 | 0.0 | 0.00 | 0.00 | 0.00 | 99 | 1015.9 |
| 20260503015001 | 2 | 116 | 0.0 | 0.0 | 0.00 | 0.00 | 0.00 | 99 | 1015.9 |
| 20260503014000 | 2 | 143 | 0.0 | 0.0 | 0.00 | 0.00 | 0.00 | 99 | 1015.9 |
| 20260503013001 | 3 | 3 | 3.2 | 0.0 | 0.00 | 0.00 | 0.00 | 99 | 1015.9 |
| 20260503012000 | 3 | 39 | 0.0 | 0.0 | 0.00 | 0.00 | 0.00 | 99 | 1015.9 |
| 20260503011000 | 3 | 35 | 0.0 | 0.0 | 0.00 | 0.00 | 0.00 | 99 | 1015.9 |
| 20260503010001 | 3 | 358 | 3.2 | 0.0 | 0.00 | 0.00 | 0.00 | 99 | 1015.9 |
| 20260503005000 | 5 | 48 | 3.2 | 0.0 | 0.00 | 0.00 | 0.00 | 99 | 1015.9 |
| 20260503004001 | 5 | 15 | 0.0 | 0.0 | 0.00 | 0.00 | 0.00 | 99 | 1015.9 |
| 20260503003000 | 5 | 45 | 0.0 | 0.0 | 0.00 | 0.00 | 0.00 | 99 | 1015.9 |
| 20260503002000 | 3 | 44 | 0.0 | 0.0 | 0.00 | 0.00 | 0.00 | 99 | 1015.9 |
| 20260503001001 | 5 | 55 | 6.4 | 0.0 | 0.00 | 0.00 | 0.00 | 99 | 1015.9 |
| 20260503000000 | 3 | 52 | 3.2 | 0.0 | 0.00 | 0.00 | 0.00 | 99 | 1015.9 |
| 20260502235001 | 3 | 159 | 0.0 | 0.0 | 0.00 | 0.00 | 0.00 | 99 | 1016.2 |
| 20260502234000 | 3 | 143 | 0.0 | 0.0 | 0.00 | 0.00 | 0.00 | 99 | 1016.2 |
| 20260502233001 | 3 | 149 | 0.0 | 0.0 | 0.00 | 0.00 | 0.00 | 99 | 1016.2 |
| 20260502232000 | 5 | 172 | 3.2 | 0.0 | 0.00 | 0.00 | 0.00 | 99 | 1016.2 |
| 20260502231001 | 5 | 7 | 0.0 | 0.0 | 0.00 | 0.00 | 0.00 | 99 | 1016.2 |
| 20260502230000 | 5 | 32 | 0.0 | 0.0 | 0.00 | 0.00 | 0.00 | 99 | 1016.5 |
| 20260502225000 | 6 | 359 | 3.2 | 0.0 | 0.00 | 0.00 | 0.00 | 99 | 1016.2 |
| 20260502224000 | 6 | 39 | 0.0 | 0.0 | 0.00 | 0.00 | 0.00 | 99 | 1016.5 |
| 20260502223001 | 6 | 16 | 3.2 | 0.0 | 0.00 | 0.00 | 0.00 | 99 | 1016.5 |
| 20260502222000 | 6 | 182 | 0.0 | 0.0 | 0.00 | 0.00 | 0.00 | 99 | 1016.5 |
| 20260502221001 | 5 | 87 | 0.0 | 0.0 | 0.00 | 0.00 | 0.00 | 99 | 1016.5 |
| 20260502220000 | 6 | 146 | 3.2 | 0.0 | 0.00 | 0.00 | 0.00 | 99 | 1016.5 |
| 20260502215000 | 6 | 141 | 0.0 | 0.0 | 0.00 | 0.00 | 0.00 | 99 | 1016.5 |
| 20260502214000 | 6 | 43 | 0.0 | 0.0 | 0.00 | 0.00 | 0.00 | 99 | 1016.5 |
| 20260502213001 | 6 | 120 | 0.0 | 0.0 | 0.00 | 0.00 | 0.00 | 99 | 1016.5 |